Date String (YYYY-MM-DD hh:mm:ss) UTC,Instrument flags,absolute air pressure of the measurement (hPa),sample flow rate (lpm),inlet stack bypass flow (lpm),air temperature of the measurement (°C),ambient temperature measured by the external sensor (°C),aerosol sample conditioner tube jacket temperature (°C),OPC LED temperature (°C),internal box temperature (°C),relative humidity of the measurement (%),span deviation,mass concentration of particles derived from Lorenz-Mie calculation of OPC scattering (μg/m³),mass concentration of particles derived from Lorenz-Mie calculation of OPC scattering (μg/m³),mass concentration of particles derived from Lorenz-Mie calculation of OPC scattering (μg/m³)
DateTimeUTC,F1_M11,P_M11,Q1_M11,Q2_M11,T1_M11,T2_M11,T3_M11,T4_M11,T5_M11,U1_M11,ZSPAN_M11,X0_M11,X2_M11,X1_M11
2023-06-17 14:00:00,SystemResetWarning,0831.7,5.00,000.00,030.1,028.6,000.0,038.7,031.6,25.5,0000.0,0005.46,0003.68,0003.37
2023-06-17 14:01:00,SystemResetWarning,0831.7,5.01,000.00,030.2,028.6,000.0,038.7,031.6,25.6,0000.0,0005.43,0003.69,0003.39
2023-06-17 14:02:00,SystemResetWarning,0831.7,5.01,000.00,030.2,028.6,000.0,038.7,031.6,25.8,0000.0,0005.46,0003.72,0003.41
2023-06-17 14:03:00,SystemResetWarning,0831.7,5.00,000.00,030.2,028.6,000.0,038.7,031.7,25.9,0000.0,0005.32,0003.71,0003.42
2023-06-17 14:04:00,SystemResetWarning,0831.7,5.00,000.00,030.2,028.6,000.0,038.7,031.7,26.1,0000.0,0005.12,0003.69,0003.42
2023-06-17 14:05:00,SystemResetWarning,0831.7,4.98,000.00,030.2,028.6,000.0,038.7,031.7,26.1,0000.0,0005.11,0003.70,0003.43
2023-06-17 14:06:00,SystemResetWarning,0831.7,5.00,000.00,030.2,028.6,000.0,038.7,031.7,26.2,0000.0,0005.11,0003.70,0003.44
2023-06-17 14:07:00,SystemResetWarning,0831.6,5.00,000.00,030.2,028.6,000.0,038.7,031.7,26.1,0000.0,0005.41,0003.69,0003.44
2023-06-17 14:08:00,SystemResetWarning,0831.6,5.01,000.00,030.2,028.6,000.0,038.7,031.7,26.0,0000.0,0005.99,0003.70,0003.45
2023-06-17 14:09:00,SystemResetWarning,0831.6,5.01,000.00,030.2,028.6,000.0,038.7,031.7,26.2,0000.0,0005.99,0003.71,0003.46
2023-06-17 14:10:00,SystemResetWarning,0831.6,5.00,000.00,030.2,028.6,000.0,038.8,031.7,26.5,0000.0,0005.91,0003.70,0003.47
2023-06-17 14:11:00,SystemResetWarning,0831.6,5.00,000.00,030.2,028.6,000.0,038.8,031.7,27.1,0000.0,0005.97,0003.72,0003.48
2023-06-17 14:12:00,SystemResetWarning,0831.6,5.00,000.00,030.2,028.6,000.0,038.8,031.7,27.1,0000.0,0006.09,0003.73,0003.48
2023-06-17 14:13:00,SystemResetWarning,0831.6,4.99,000.00,030.2,028.7,000.0,038.8,031.7,27.1,0000.0,0006.39,0003.75,0003.49
2023-06-17 14:14:00,SystemResetWarning,0831.6,4.99,000.00,030.3,028.7,000.0,038.8,031.7,26.5,0000.0,0006.85,0003.75,0003.50
2023-06-17 14:15:00,SystemResetWarning,0831.6,5.00,000.00,030.3,028.7,000.0,038.8,031.7,26.5,0000.0,0006.90,0003.76,0003.52
2023-06-17 14:16:00,SystemResetWarning,0831.6,5.00,000.00,030.3,028.7,000.0,038.8,031.8,26.7,0000.0,0006.97,0003.77,0003.53
2023-06-17 14:17:00,SystemResetWarning,0831.6,5.01,000.00,030.3,028.7,000.0,038.8,031.8,26.3,0000.0,0007.37,0003.79,0003.54
2023-06-17 14:18:00,SystemResetWarning,0831.6,5.01,000.00,030.3,028.7,000.0,038.8,031.8,26.6,0000.0,0007.41,0003.78,0003.55
2023-06-17 14:19:00,SystemResetWarning,0831.6,5.00,000.00,030.3,028.7,000.0,038.8,031.8,26.9,0000.0,0006.70,0003.80,0003.56
2023-06-17 14:20:00,SystemResetWarning,0831.6,4.99,000.00,030.3,028.7,000.0,038.8,031.8,26.6,0000.0,0006.58,0003.79,0003.56
2023-06-17 14:21:00,SystemResetWarning,0831.6,4.99,000.00,030.3,028.7,000.0,038.8,031.8,26.3,0000.0,0006.62,0003.80,0003.56
2023-06-17 14:22:00,SystemResetWarning,0831.6,5.01,000.00,030.3,028.8,000.0,038.9,031.8,26.5,0000.0,0006.67,0003.84,0003.58
2023-06-17 14:23:00,SystemResetWarning,0831.6,5.01,000.00,030.3,028.8,000.0,038.9,031.8,26.7,0000.0,0006.65,0003.84,0003.57
2023-06-17 14:24:00,SystemResetWarning,0831.5,5.00,000.00,030.4,028.8,000.0,038.9,031.8,26.0,0000.0,0006.48,0003.80,0003.58
2023-06-17 14:25:00,SystemResetWarning,0831.6,4.99,000.00,030.4,028.8,000.0,038.9,031.8,26.3,0000.0,0005.87,0003.78,0003.58
2023-06-17 14:26:00,SystemResetWarning,0831.6,5.00,000.00,030.4,028.8,000.0,038.9,031.9,27.2,0000.0,0005.69,0003.78,0003.57
2023-06-17 14:27:00,SystemResetWarning,0831.6,5.00,000.00,030.4,028.8,000.0,038.9,031.9,26.9,0000.0,0005.59,0003.78,0003.56
2023-06-17 14:28:00,SystemResetWarning,0831.6,5.00,000.00,030.4,028.8,000.0,038.9,031.9,26.9,0000.0,0005.42,0003.78,0003.55
2023-06-17 14:29:00,SystemResetWarning,0831.6,5.00,000.00,030.4,028.8,000.0,038.9,031.9,26.2,0000.0,0005.01,0003.79,0003.54
2023-06-17 14:30:00,SystemResetWarning,0831.6,5.00,000.00,030.4,028.8,000.0,038.9,031.9,26.2,0000.0,0004.95,0003.77,0003.54
2023-06-17 14:31:00,SystemResetWarning,0831.6,5.00,000.00,030.4,028.8,000.0,038.9,031.9,26.0,0000.0,0004.98,0003.76,0003.53
2023-06-17 14:32:00,SystemResetWarning,0831.7,5.02,000.00,030.4,028.8,000.0,038.9,031.9,25.6,0000.0,0004.94,0003.75,0003.52
2023-06-17 14:33:00,SystemResetWarning,0831.7,5.01,000.00,030.4,028.8,000.0,039.0,031.9,25.9,0000.0,0005.42,0003.73,0003.51
2023-06-17 14:34:00,SystemResetWarning,0831.6,4.99,000.00,030.4,028.8,000.0,039.0,031.9,25.7,0000.0,0005.79,0003.71,0003.51
2023-06-17 14:35:00,SystemResetWarning,0831.6,4.99,000.00,030.4,028.9,000.0,039.0,031.9,26.0,0000.0,0005.82,0003.71,0003.51
2023-06-17 14:36:00,SystemResetWarning,0831.7,5.00,000.00,030.4,028.9,000.0,039.0,031.9,26.0,0000.0,0005.81,0003.70,0003.49
2023-06-17 14:37:00,SystemResetWarning,0831.7,5.00,000.00,030.4,028.9,000.0,039.0,031.9,25.8,0000.0,0005.75,0003.68,0003.48
2023-06-17 14:38:00,SystemResetWarning,0831.7,5.00,000.00,030.5,028.9,000.0,039.0,032.0,25.7,0000.0,0006.00,0003.67,0003.49
2023-06-17 14:39:00,SystemResetWarning,0831.7,5.01,000.00,030.5,028.9,000.0,039.0,032.0,25.8,0000.0,0006.07,0003.67,0003.49
2023-06-17 14:40:00,SystemResetWarning,0831.7,5.01,000.00,030.5,028.9,000.0,039.0,032.0,26.2,0000.0,0005.98,0003.64,0003.48
2023-06-17 14:41:00,SystemResetWarning,0831.7,4.99,000.00,030.5,028.8,000.0,039.0,031.9,25.8,0000.0,0005.98,0003.64,0003.46
2023-06-17 14:42:00,SystemResetWarning,0831.7,4.99,000.00,030.5,028.9,000.0,039.0,032.0,26.2,0000.0,0005.94,0003.63,0003.46
2023-06-17 14:43:00,SystemResetWarning,0831.7,5.00,000.00,030.5,028.9,000.0,039.0,032.0,25.9,0000.0,0005.96,0003.63,0003.46
2023-06-17 14:44:00,SystemResetWarning,0831.6,5.00,000.00,030.5,028.9,000.0,039.0,032.0,26.1,0000.0,0005.59,0003.62,0003.45
2023-06-17 14:45:00,SystemResetWarning,0831.6,5.00,000.00,030.5,028.9,000.0,039.0,032.0,26.1,0000.0,0004.75,0003.57,0003.43
2023-06-17 14:46:00,SystemResetWarning,0831.6,5.00,000.00,030.5,028.9,000.0,039.1,032.0,26.4,0000.0,0004.65,0003.55,0003.42
2023-06-17 14:47:00,SystemResetWarning,0831.6,5.00,000.00,030.5,028.9,000.0,039.1,032.0,26.2,0000.0,0004.68,0003.56,0003.43
2023-06-17 14:48:00,SystemResetWarning,0831.6,5.00,000.00,030.5,028.9,000.0,039.1,032.0,25.9,0000.0,0004.79,0003.59,0003.43
2023-06-17 14:49:00,SystemResetWarning,0831.5,5.00,000.00,030.5,028.9,000.0,039.1,032.0,25.6,0000.0,0005.61,0003.62,0003.44
2023-06-17 14:50:00,SystemResetWarning,0831.5,5.00,000.00,030.5,028.9,000.0,039.1,032.0,26.0,0000.0,0006.22,0003.64,0003.45
2023-06-17 14:51:00,SystemResetWarning,0831.5,4.99,000.00,030.5,028.9,000.0,039.1,032.0,26.0,0000.0,0006.44,0003.66,0003.46
2023-06-17 14:52:00,SystemResetWarning,0831.5,4.99,000.00,030.5,028.9,000.0,039.1,032.0,26.2,0000.0,0006.44,0003.66,0003.47
2023-06-17 14:53:00,SystemResetWarning,0831.5,5.00,000.00,030.6,028.9,000.0,039.1,032.0,25.7,0000.0,0006.49,0003.69,0003.48
2023-06-17 14:54:00,SystemResetWarning,0831.5,5.00,000.00,030.6,029.0,000.0,039.1,032.0,25.8,0000.0,0006.52,0003.70,0003.49
2023-06-17 14:55:00,SystemResetWarning,0831.5,5.01,000.00,030.6,029.0,000.0,039.1,032.1,26.1,0000.0,0006.56,0003.70,0003.49
2023-06-17 14:56:00,SystemResetWarning,0831.5,5.00,000.00,030.6,029.0,000.0,039.1,032.1,25.7,0000.0,0006.63,0003.73,0003.51
2023-06-17 14:57:00,SystemResetWarning,0831.5,5.01,000.00,030.6,029.0,000.0,039.1,032.0,26.0,0000.0,0006.80,0003.76,0003.52
2023-06-17 14:58:00,SystemResetWarning,0831.4,5.00,000.00,030.6,029.0,000.0,039.1,032.0,25.8,0000.0,0007.28,0003.75,0003.52
2023-06-17 14:59:00,SystemResetWarning,0831.5,5.00,000.00,030.6,029.0,000.0,039.1,032.0,26.1,0000.0,0007.64,0003.73,0003.52
